www.pogodaiklimat.ru

Погода и климат >> Архив погоды >> Великобритания >> Кинлосс


ПОГОДА в Кинлоссе

  • Прогноз погоды в Кинлоссе
  • Монитор погоды в Кинлоссе

АРХИВ ПОГОДЫ в Кинлоссе

Время (UTC), дата Ветер
(напр.,м/с)
 
Видим.   Явления Облачность Т
(С)
Тd
(С)
f
(%)
Тe
(С)
Тes
(С)
Комфортность P
(гПа)
Po
(гПа)
Тmin
(С)
Tmax
(С)
R
(мм)
R24
(мм)
S
(см)
07 19.06 ЮЗ 5 45 км н/о +14.8 +8.0 64 +13 +13 1005.5 1004.9
08 19.06 ЮЗ 7 50 км н/о +15.1 +7.4 60 +13 +13 1005.1 1004.6
09 19.06 ЮЗ 6 45 км н/о +15.8 +7.1 56 +15 +15 1004.6 1004.0
10 19.06 СЗ 4 30 км н/о +15.4 +9.3 67 +15 +15 1004.7 1004.1
11 19.06 СЗ 3 50 км н/о +14.9 +8.8 67 +14 +14 1004.6 1004.0
12 19.06 СЗ 2 50 км н/о +15.2 +9.2 67 +15 +15 1004.5 1003.9
13 19.06 Ю 2 35 км н/о +16.3 +9.5 64 +16 +16 1004.1 1003.5
14 19.06 ЮЗ 6 50 км н/о +18.4 +8.0 51 +18 +18 1003.8 1003.2
15 19.06 З 4
{13}
40 км в посл. час дождь н/о +16.3 +11.3 72 +16 +16 1003.8 1003.2
16 19.06 ЮЗ 4 22 км слаб. ливневой дождь н/о +15.4 +10.7 74 +15 +15 1003.6 1003.0
17 19.06 ЮЗ 6 12 км ливневой дождь н/о +15.2 +8.7 65 +14 +14 1003.3 1002.8
18 19.06 ЮЗ 7 40 км слаб. ливневой дождь н/о +16.4 +7.8 57 +15 +15 1003.2 1002.6 +19.0 1
19 19.06 ЮЗ 8 30 км в посл. час дождь н/о +15.5 +6.1 53 +14 +14 1003.4 1002.8
20 19.06 ЮЗ 4 50 км н/о +14.2 +7.7 65 +13 +13 1003.6 1003.0
21 19.06 ЮЗ 4 50 км н/о +13.9 +7.8 67 +13 +13 1003.7 1003.1
22 19.06 ЮЗ 4 50 км н/о +12.5 +7.6 72 +11 +11 1003.7 1003.1
23 19.06 З 3 50 км н/о +11.6 +7.6 76 +10 +10 1003.8 1003.2
00 20.06 ЮЗ 4 50 км в посл. час дождь н/о +11.1 +7.7 80 +9 +9 1003.7 1003.1 0.0
01 20.06 ЮЗ 2 50 км в посл. час дождь н/о +11.1 +7.8 80 +10 +10 1003.5 1002.9
02 20.06 Ю 2 50 км слаб. ливневой дождь н/о +10.7 +7.8 82 +10 +10 1003.3 1002.7
03 20.06 Ю 2 23 км слаб. дождь н/о +10.2 +8.2 87 +9 +9 1003.1 1002.5
04 20.06 Ю 2 45 км слаб. дождь н/о +9.8 +8.5 92 +9 +9 1002.8 1002.2
05 20.06 ЮЗ 2 50 км в посл. час дождь н/о +10.1 +8.6 90 +9 +9 1002.7 1002.1
06 20.06 ЮЗ 4 35 км н/о +10.1 +8.3 89 +7 +7 1002.5 1001.9 +9.8 0.8
07 20.06 ЮЗ 5 35 км н/о +11.8 +7.6 75 +9 +9 1002.4 1001.8
08 20.06 ЮЗ 6 29 км н/о +13.1 +6.5 64 +11 +11 1002.3 1001.7
09 20.06 З 7 45 км н/о +13.0 +5.2 59 +11 +11 1002.3 1001.7
10 20.06 ЮЗ 7 40 км н/о +14.3 +6.2 58 +12 +12 1002.2 1001.6
11 20.06 ЮЗ 9
{14}
50 км н/о +14.3 +6.7 60 +12 +12 1002.4 1001.8
12 20.06 З 9
{14}
35 км в посл. час дождь н/о +14.6 +7.7 63 +12 +12 1002.8 1002.2 0.0
13 20.06 З 9
{15}
50 км в посл. час дождь н/о +14.9 +7.8 62 +13 +13 1003.3 1002.7
14 20.06 З 8
{13}
30 км н/о +15.6 +8.4 62 +14 +14 1003.8 1003.2
15 20.06 З 9 23 км н/о +16.4 +8.9 61 +15 +15 1004.0 1003.4
16 20.06 З 8 35 км н/о +15.2 +7.9 62 +13 +13 1004.4 1003.8
17 20.06 З 10
{14}
35 км н/о +16.2 +5.3 48 +14 +14 1004.7 1004.1
18 20.06 З 9
{13}
30 км н/о +15.3 +5.8 53 +13 +13 1005.0 1004.4 +16.9 0.0
19 20.06 З 7
{13}
50 км н/о +13.7 +5.5 58 +12 +12 1005.9 1005.3
20 20.06 ЮЗ 6 50 км н/о +12.4 +6.1 65 +10 +10 1006.4 1005.8
21 20.06 ЮЗ 5 50 км н/о +11.0 +5.8 70 +8 +8 1007.2 1006.6
22 20.06 ЮЗ 6 50 км н/о +10.3 +6.3 76 +7 +7 1007.8 1007.2
23 20.06 ЮЗ 4 45 км в посл. час дождь н/о +9.4 +5.9 79 +7 +7 1008.2 1007.6
00 21.06 З 4 50 км н/о +9.8 +6.1 78 +7 +7 1008.6 1008.0 0.0
01 21.06 ЮЗ 6 50 км н/о +9.1 +5.7 79 +6 +6 1008.7 1008.1
02 21.06 ЮЗ 7 50 км н/о +9.1 +5.3 77 +5 +5 1008.8 1008.2
03 21.06 ЮЗ 5 50 км н/о +8.8 +5.4 79 +6 +6 1009.2 1008.6
04 21.06 ЮЗ 5 50 км н/о +8.7 +5.5 80 +5 +5 1009.5 1008.9
05 21.06 ЮЗ 6 50 км н/о +9.1 +5.4 78 +6 +6 1009.8 1009.2
06 21.06 ЮЗ 6 40 км н/о +10.2 +6.1 76 +7 +7 1010.5 1009.9 +8.4 0.0
07 21.06 ЮЗ 7 50 км н/о +10.6 +5.9 73 +7 +7 1011.0 1010.3
08 21.06 ЮЗ 7
{13}
35 км н/о +12.4 +5.9 65 +10 +10 1011.6 1011.0
09 21.06 З 8 35 км н/о +12.2 +5.8 65 +9 +9 1012.4 1011.8
10 21.06 З 8 35 км н/о +13.0 +7.1 67 +10 +10 1012.9 1012.3
11 21.06 З 8 45 км н/о +14.3 +6.5 59 +12 +12 1013.4 1012.8
12 21.06 СЗ 7 27 км н/о +13.2 +7.5 68 +11 +11 1014.2 1013.6
13 21.06 СЗ 6 18 км ливневой дождь н/о +12.3 +9.2 81 +10 +10 1015.3 1014.6
14 21.06 СЗ 6 50 км в посл. час дождь н/о +14.5 +7.3 62 +13 +13 1015.7 1015.1
15 21.06 СЗ 6 22 км н/о +15.6 +6.8 56 +14 +14 1016.3 1015.7
16 21.06 СЗ 6 40 км н/о +13.9 +6.2 60 +12 +12 1016.7 1016.1
17 21.06 ЮЗ 3 19 км в посл. час дождь н/о +14.8 +8.3 65 +14 +14 1017.2 1016.6
18 21.06 З 6 40 км н/о +14.4 +5.9 57 +13 +13 1017.6 1017.0 +16.6 0.4
19 21.06 З 5 50 км в посл. час дождь н/о +13.9 +5.2 56 +12 +12 1018.1 1017.5
20 21.06 ЮЗ 5 50 км н/о +13.3 +5.4 59 +12 +12 1018.5 1017.9
21 21.06 ЮЗ 4 45 км н/о +11.7 +5.7 67 +10 +10 1019.2 1018.6
22 21.06 ЮЗ 3 50 км н/о +9.9 +5.9 76 +8 +8 1019.6 1019.0
23 21.06 ЮЗ 3 50 км н/о +10.2 +5.4 72 +8 +8 1019.7 1019.1
00 22.06 Ю 3 50 км н/о +10.1 +5.0 71 +8 +8 1020.1 1019.4 0.0
01 22.06 ЮЗ 1 50 км н/о +8.7 +4.2 73 +9 +9 1020.2 1019.6
02 22.06 В 1 50 км н/о +5.4 +2.4 81 +5 +5 1020.1 1019.5
03 22.06 З 2 50 км н/о +6.1 +3.5 83 +4 +4 1020.0 1019.4
04 22.06 З 3 50 км н/о +4.9 +2.7 86 +2 +2 1019.9 1019.2
05 22.06 З 2 45 км н/о +7.7 +5.0 83 +6 +6 1019.8 1019.2
06 22.06 ЮЗ 2 45 км н/о +9.9 +4.5 69 +9 +9 1019.8 1019.1 +4.1 0.0
07 22.06 ЮЗ 3 50 км н/о +12.8 +5.8 62 +12 +12 1019.7 1019.1
08 22.06 З 2 45 км н/о +14.5 +6.9 60 +15 +15 1019.7 1019.1
09 22.06 ЮЗ 4 40 км н/о +16.0 +7.1 55 +15 +15 1019.4 1018.8
10 22.06 СЗ 5 35 км н/о +14.9 +7.1 60 +14 +14 1019.2 1018.6
11 22.06 С 3 50 км н/о +15.6 +8.3 62 +15 +15 1019.3 1018.7
12 22.06 СВ 2 40 км н/о +16.7 +7.6 55 +17 +17 1019.3 1018.7
13 22.06 ЮЗ 3 40 км н/о +17.6 +7.1 50 +18 +18 1019.1 1018.5
14 22.06 ЮЗ 4 35 км в посл. час дождь н/о +18.0 +9.4 57 +18 +18 1019.2 1018.6
15 22.06 ЮЗ 6 30 км н/о +18.5 +8.1 51 +18 +18 1019.2 1018.6
16 22.06 ЮЗ 5 25 км н/о +18.5 +8.0 50 +18 +18 1018.8 1018.2
17 22.06 З 5 25 км н/о +18.6 +9.4 55 +19 +19 1019.0 1018.4
18 22.06 З 2 50 км н/о +17.0 +9.6 62 +18 +18 1019.1 1018.5 +19.9 0.0
19 22.06 З 2 20 км н/о +18.7 +9.1 54 +20 +20 1019.3 1018.7
20 22.06 С 3 45 км н/о +15.4 +9.6 68 +15 +15 1019.8 1019.2
21 22.06 В 2 45 км н/о +14.2 +9.4 73 +14 +14 1020.2 1019.6
22 22.06 С 4 50 км н/о +12.8 +11.0 89 +11 +11 1020.8 1020.2
23 22.06 В 3 50 км н/о +12.3 +10.1 86 +11 +11 1021.2 1020.6
00 23.06 ЮВ 2 45 км н/о +12.0 +10.4 90 +11 +11 1021.1 1020.5
01 23.06 СВ 2 35 км н/о +11.3 +10.0 92 +10 +10 1021.2 1020.6
02 23.06 В 1 35 км н/о +11.1 +10.2 94 +11 +11 1021.4 1020.8
03 23.06 СВ 1 23 км н/о +10.7 +9.9 95 +10 +10 1021.7 1021.1
04 23.06 В 1 40 км н/о +10.9 +10.1 95 +11 +11 1021.7 1021.1
05 23.06 ЮВ 1 28 км н/о +11.1 +10.2 94 +12 +12 1021.6 1021.0
06 23.06 В 1 30 км н/о +11.5 +10.7 95 +11 +11 1021.9 1021.3 +10.6
07 23.06 СВ 2 26 км н/о +12.7 +11.3 91 +12 +12 1022.2 1021.5
08 23.06 В 2 25 км н/о +13.8 +11.6 87 +13 +13 1022.4 1021.8
09 23.06 СВ 3 30 км н/о +14.6 +12.0 84 +14 +14 1022.4 1021.8
10 23.06 С 4 27 км н/о +16.2 +13.7 85 +16 +16 1022.3 1021.7
11 23.06 С 5 35 км н/о +16.0 +12.9 82 +15 +15 1022.3 1021.7
12 23.06 СВ 6 30 км н/о +17.6 +13.0 74 +17 +17 1022.0 1021.4
13 23.06 СВ 6 20 км н/о +18.1 +13.5 74 +18 +18 1021.7 1021.1
14 23.06 СВ 7 35 км н/о +19.4 +13.5 69 +20 +20 1021.5 1020.9
15 23.06 СВ 8 19 км н/о +19.9 +13.8 68 +21 +21 комфорт 1021.1 1020.5
16 23.06 СВ 5 19 км н/о +18.1 +13.2 73 +18 +18 1020.8 1020.2
17 23.06 В 4 50 км н/о +19.3 +12.6 65 +21 +21 комфорт 1020.8 1020.2
18 23.06 З 2 30 км н/о +17.2 +13.3 78 +18 +18 1021.2 1020.6 +20.4
19 23.06 ЮВ 4 45 км н/о +18.1 +8.3 53 +18 +18 1021.8 1021.2
20 23.06 В 4 50 км н/о +17.0 +6.2 49 +17 +17 1022.4 1021.8
21 23.06 В 4 50 км н/о +14.7 +6.1 56 +14 +14 1022.9 1022.3
22 23.06 В 5 45 км н/о +14.8 +4.6 50 +13 +13 1023.1 1022.5
23 23.06 В 4 50 км н/о +13.4 +6.2 62 +12 +12 1022.9 1022.3
00 24.06 В 4 50 км н/о +12.2 +8.4 78 +10 +10 1023.4 1022.8
01 24.06 В 4 50 км н/о +12.6 +8.7 77 +11 +11 1023.5 1022.9
02 24.06 В 4 50 км н/о +12.1 +9.1 82 +10 +10 1023.2 1022.6
03 24.06 СВ 5 40 км в посл. час дождь н/о +11.8 +10.1 89 +9 +9 1022.9 1022.3
04 24.06 СВ 4 40 км в посл. час дождь н/о +12.1 +10.5 90 +10 +10 1022.8 1022.2
05 24.06 СВ 4 45 км н/о +12.3 +10.9 91 +10 +10 1022.9 1022.3
06 24.06 В 4 35 км н/о +12.7 +11.2 91 +11 +11 1022.8 1022.2 +11.8 0.0
07 24.06 СВ 5 14 км слаб. ливневой дождь н/о +12.5 +11.8 95 +10 +10 1022.2 1021.6
08 24.06 СВ 5 13 км слаб. дождь н/о +12.3 +11.8 97 +10 +10 1021.8 1021.1
09 24.06 В 5 7000 м дождь н/о +12.0 +11.4 96 +9 +9 1022.3 1021.7
10 24.06 В 5 16 км в посл. час дождь н/о +12.1 +11.5 96 +10 +10 1022.2 1021.6
11 24.06 СВ 5 14 км н/о +12.2 +11.5 95 +10 +10 1022.2 1021.6
12 24.06 СВ 6 3700 м слаб. морось н/о +11.9 +11.4 97 +9 +9 1022.2 1021.5 3
13 24.06 СВ 6 5000 м слаб. дождь н/о +11.9 +11.5 97 +9 +9 1022.1 1021.5
14 24.06 СВ 6 5000 м слаб. дождь н/о +11.7 +11.3 97 +9 +9 1022.0 1021.4
15 24.06 СВ 6 3800 м слаб. дождь н/о +11.8 +11.5 98 +9 +9 1021.7 1021.1
16 24.06 СВ 5 2600 м слаб. морось н/о +11.5 +11.2 98 +9 +9 1021.6 1021.0
17 24.06 СВ 6 3500 м в посл. час морось н/о +11.2 +11.0 99 +8 +8 1021.3 1020.7
18 24.06 СВ 6 3500 м слаб. морось н/о +11.5 +11.3 99 +8 +8 1021.3 1020.7 +12.7 6
19 24.06 СВ 5 3600 м слаб. дождь н/о +11.5 +11.4 99 +9 +9 1021.6 1021.0
20 24.06 СВ 5 4700 м дождь н/о +11.5 +11.4 99 +9 +9 1021.8 1021.2
21 24.06 СВ 4 4700 м сильн. дождь н/о +11.3 +11.3 100 +9 +9 1022.4 1021.8
22 24.06 С 4 7000 м в посл. час дождь н/о +11.4 +11.3 99 +9 +9 1022.8 1022.2
23 24.06 С 5 10 км н/о +11.3 +11.2 99 +9 +9 1023.2 1022.6
00 25.06 С 4 12 км н/о +11.3 +11.1 99 +9 +9 1023.2 1022.6 7
01 25.06 С 3 8000 м дымка н/о +11.4 +11.1 98 +9 +9 1023.6 1022.9
02 25.06 С 4 17 км н/о +11.5 +11.1 97 +9 +9 1023.8 1023.2
03 25.06 СЗ 4 35 км н/о +11.5 +11.0 97 +9 +9 1023.5 1022.9
04 25.06 С 4 4700 м дымка н/о +11.5 +10.9 96 +9 +9 1024.0 1023.4
05 25.06 С 4 3400 м дымка н/о +11.4 +11.1 98 +9 +9 1024.1 1023.5
06 25.06 С 4 3000 м дымка н/о +11.5 +11.4 99 +9 +9 1024.7 1024.1 +11.3 7
07 25.06 СВ 5 2600 м дымка н/о +11.5 +11.4 99 +9 +9 1025.1 1024.5
08 25.06 СВ 4 15 км в посл. час дождь н/о +11.6 +11.5 99 +9 +9 1025.9 1025.3
09 25.06 С 5 17 км н/о +11.9 +11.5 97 +9 +9 1026.2 1025.6
10 25.06 СВ 5 20 км н/о +12.1 +11.6 97 +10 +10 1026.4 1025.8
11 25.06 СВ 4 12 км н/о +12.3 +11.7 96 +10 +10 1026.9 1026.3
12 25.06 СВ 4 14 км н/о +12.1 +11.2 94 +10 +10 1027.6 1027.0 0.4
13 25.06 СВ 4 21 км н/о +13.6 +11.4 87 +12 +12 1027.5 1026.9
14 25.06 СВ 5 24 км н/о +13.8 +11.0 83 +12 +12 1027.6 1027.0
15 25.06 СВ 4 19 км н/о +15.1 +11.3 78 +14 +14 1028.0 1027.4
16 25.06 С 5 24 км н/о +14.8 +10.8 77 +13 +13 1028.0 1027.4
17 25.06 С 5 22 км н/о +13.5 +9.7 78 +12 +12 1028.3 1027.7
18 25.06 СВ 4 19 км н/о +14.0 +9.9 76 +13 +13 1028.8 1028.2 +15.3 0.4
19 25.06 СВ 3 22 км н/о +13.0 +9.5 79 +12 +12 1029.3 1028.7
20 25.06 СВ 2 24 км н/о +12.3 +9.4 82 +11 +11 1029.6 1029.0
21 25.06 С 5 30 км н/о +11.5 +8.0 79 +9 +9 1030.0 1029.4
22 25.06 С 5 35 км н/о +10.9 +7.7 81 +8 +8 1030.6 1030.0
23 25.06 СВ 3 30 км н/о +10.7 +7.7 82 +9 +9 1031.0 1030.4
00 26.06 С 5 30 км н/о +10.5 +7.7 83 +8 +8 1031.3 1030.7
01 26.06 С 2 45 км н/о +10.3 +7.5 83 +9 +9 1031.1 1030.5
02 26.06 СЗ 2 29 км н/о +10.1 +7.8 86 +9 +9 1031.1 1030.4
03 26.06 СЗ 4 40 км н/о +10.2 +6.8 79 +8 +8 1031.2 1030.6
04 26.06 СЗ 3 50 км н/о +9.7 +6.9 83 +7 +7 1031.3 1030.7
05 26.06 СЗ 3 35 км н/о +9.6 +7.0 84 +7 +7 1031.7 1031.1
06 26.06 СЗ 3 45 км н/о +10.2 +7.1 81 +8 +8 1031.9 1031.3 +8.7
07 26.06 СЗ 3 45 км н/о +10.5 +7.4 81 +8 +8 1032.3 1031.7

 

Местоположение метеостанции Кинлосс (Великобритания): широта 57.65 долгота -3.57 высота над уровнем моря 5 м.

В архиве по умолчанию представлена погода в Кинлоссе за последнюю неделю. Архивные данные за месяц целиком и за предыдущие месяцы, начиная с января 2011 года, Вы можете получить, выбрав интересующий диапазон дат из раскрывающегося списка и нажав кнопку "Ввод!".


*Определитесь, кто Вы:
робот инопланетянин человек

Внимание! Время в таблицах - всемирное. Для получения местного времени необходимо прибавить поправку, которая равна 0 ч.

Смотрите также архив погоды в соседних городах и на ближайших метеорологических станциях:

Погода в Лоссимуте (Великобритания) (17 км)
Погода в Тейн-Рендже (Великобритания) (30 км)
Погода на Авморе (Великобритания) (52 км)
Погода на Кайрнгорме (Великобритания) (59 км)
Погода в Абойне (Великобритания) (77 км)
Погода на Озере Гласкарнок (Великобритания) (78 км)
Погода на Кэрнуэлле (Великобритания) (86 км)
Погода на Алтнахарре (Великобритания) (87 км)
Погода в Уике (Великобритания) (94 км)
Погода в Абердине (Великобритания) (95 км)

Пояснения к столбцам:

Ветер - указаны скорость ветра в м/с - средняя за 10 мин, порывы в срок и между сроками (в фигурных скобках) и направление, откуда дует ветер: С - северный, СВ - северо-восточный, В - восточный, ЮВ - юго-восточный, Ю - южный, ЮЗ - юго-западный, З - западный, СЗ - северо-западный.
Видимость - горизонтальная дальность видимости в метрах или километрах. При видимости от 1 до 10 км при отсутствии осадков обычно наблюдается дымка, при ухудшении видимости до 1 км и менее - туман. В сухую погоду видимость может ухудшаться дымом, пылью или мглою.
Явления - указаны атмосферные явления, наблюдавшиеся в срок или в последний час перед сроком; фигурными скобками обозначены явления, наблюдавшиеся между сроками (за 1-3 часа до срока); квадратными скобками обозначены град или гололедные отложения с указанием их диаметра в мм.
Облачность - указаны через наклонную черту общая и нижняя облачность в баллах и высота нижней границы облаков в метрах; квадратными скобками обозначены формы облаков: Ci - перистые, Cs - перисто-слоистые, Cc - перисто-кучевые, Ac - высококучевые, As - высокослоистые, Sc - слоисто-кучевые, Ns - слоисто-дождевые, Cu - кучевые, Cb - кучево-дождевые. Подробнее классификацию облаков см. в Атласе облаков (PDF).
T - Температура воздуха - температура, измеренная на высоте 2 м над землей.
Td - Температура точки росы - температура, при понижении до которой содержащийся в воздухе водяной пар достигнет насыщения.
f - Относительная влажность воздуха - влажноcть воздуха, измеренная на высоте 2 м над землей.
Te - Эффективная температура - температура, которую ощущает одетый по сезону человек в тени. Характеристика душности погоды. При расчете учитывается влияние влажности воздуха и скорости ветра на теплоощущения человека.
Tes - Эффективная температура на солнце - температура, которую ощущает человек, с поправкой на солнечный нагрев. Характеристика знойности погоды. Зависит от высоты солнца над горизонтом, облачности и скорости ветра. Ночью, в пасмурную погоду, а также при ветре 12 м/с и более поправка равна нулю.
P - Атмосферное давление - приведенное к уровню моря атмосферное давление.
Po - Атмосферное давление - измеренное на уровне метеостанции атмосферное давление.
Tmin - Минимальная температура - минимум температуры воздуха на высоте 2 м над землей.
Tmax - Максимальная температура - максимум температуры воздуха на высоте 2 м над землей.
R - Количество осадков - Количество выпавших осадков за период времени, мм. При наведении курсора мыши на число - период времени, за который выпало указанное количество осадков.
R24 - Количество осадков - Количество выпавших осадков за 24 часа, мм.
S - Снежный покров - Высота снежного покрова, см. При наведении курсора мыши на число - состояние снежного покрова и степень покрытия местности в баллах.